Time,TemperatureF,DewpointF,PressureIn,WindDirection,WindDirectionDegrees,WindSpeedMPH,WindSpeedGustMPH,Humidity,HourlyPrecipIn,Conditions,Clouds,dailyrainin,SoftwareType,DateUTC
2013-06-27 00:01:00,76.8,64.2,30.00,North,0,0.0,0.0,65,0.00,CLR,FEW,0.00,WeatherDisplay:10.37,2013-06-27 04:01:00,
2013-06-27 00:02:00,76.8,64.2,30.00,North,0,0.0,0.0,65,0.00,CLR,FEW,0.00,WeatherDisplay:10.37,2013-06-27 04:02:00,
2013-06-27 00:03:00,76.8,64.2,30.00,North,0,0.0,0.0,65,0.00,CLR,FEW,0.00,WeatherDisplay:10.37,2013-06-27 04:03:00,
2013-06-27 00:08:00,76.6,63.5,30.00,North,0,0.0,0.0,64,0.00,CLR,FEW,0.00,WeatherDisplay:10.37,2013-06-27 04:08:00,
2013-06-27 00:09:00,76.6,63.5,30.00,North,0,0.0,0.0,64,0.00,CLR,FEW,0.00,WeatherDisplay:10.37,2013-06-27 04:09:00,
2013-06-27 00:14:00,76.6,63.5,30.00,North,0,0.0,0.0,64,0.00,CLR,FEW,0.00,WeatherDisplay:10.37,2013-06-27 04:14:00,
2013-06-27 00:19:00,76.6,63.5,30.00,North,0,0.0,0.0,64,0.00,CLR,FEW,0.00,WeatherDisplay:10.37,2013-06-27 04:19:00,
2013-06-27 00:24:00,76.6,63.1,30.00,North,0,0.0,0.0,63,0.00,CLR,FEW,0.00,WeatherDisplay:10.37,2013-06-27 04:24:00,
2013-06-27 00:29:00,76.5,62.9,30.00,North,0,0.0,0.0,63,0.00,CLR,FEW,0.00,WeatherDisplay:10.37,2013-06-27 04:29:00,
2013-06-27 00:34:00,76.5,63.4,29.97,North,0,0.0,0.0,64,0.00,CLR,FEW,0.00,WeatherDisplay:10.37,2013-06-27 04:34:00,
2013-06-27 00:39:00,76.5,63.8,29.97,North,0,0.0,0.0,65,0.00,CLR,FEW,0.00,WeatherDisplay:10.37,2013-06-27 04:39:00,
2013-06-27 00:44:00,76.3,64.5,29.97,North,0,0.0,0.0,67,0.00,CLR,FEW,0.00,WeatherDisplay:10.37,2013-06-27 04:44:00,
2013-06-27 00:49:00,76.1,66.0,29.97,North,0,0.0,0.0,71,0.00,CLR,FEW,0.00,WeatherDisplay:10.37,2013-06-27 04:49:00,
2013-06-27 00:54:00,76.1,66.8,29.97,North,0,0.0,0.0,73,0.00,CLR,FEW,0.00,WeatherDisplay:10.37,2013-06-27 04:54:00,
2013-06-27 00:59:00,76.1,67.2,29.97,North,0,0.0,0.0,74,0.00,CLR,FEW,0.00,WeatherDisplay:10.37,2013-06-27 04:59:00,
2013-06-27 01:04:00,75.9,67.0,29.97,North,0,0.0,0.0,74,0.00,CLR,FEW,0.00,WeatherDisplay:10.37,2013-06-27 05:04:00,
2013-06-27 01:09:00,75.9,67.0,29.97,North,0,0.0,0.0,74,0.00,CLR,FEW,0.00,WeatherDisplay:10.37,2013-06-27 05:09:00,
2013-06-27 01:14:00,75.9,67.0,29.97,North,0,0.0,0.0,74,0.00,CLR,FEW,0.00,WeatherDisplay:10.37,2013-06-27 05:14:00,
2013-06-27 01:19:00,75.9,67.0,29.97,North,0,0.0,0.0,74,0.00,CLR,FEW,0.00,WeatherDisplay:10.37,2013-06-27 05:19:00,
2013-06-27 01:24:00,75.9,67.4,29.97,North,0,0.0,0.0,75,0.00,CLR,FEW,0.00,WeatherDisplay:10.37,2013-06-27 05:24:00,
2013-06-27 01:29:00,75.9,67.8,29.97,North,0,0.0,0.0,76,0.00,CLR,FEW,0.00,WeatherDisplay:10.37,2013-06-27 05:29:00,
2013-06-27 01:34:00,75.9,67.8,29.94,North,0,0.0,0.0,76,0.00,CLR,FEW,0.00,WeatherDisplay:10.37,2013-06-27 05:34:00,
2013-06-27 01:39:00,75.9,68.2,29.94,North,0,0.0,0.0,77,0.00,CLR,FEW,0.00,WeatherDisplay:10.37,2013-06-27 05:39:00,
2013-06-27 01:44:00,75.9,68.6,29.94,North,0,0.0,0.0,78,0.00,CLR,FEW,0.00,WeatherDisplay:10.37,2013-06-27 05:44:00,
2013-06-27 01:49:00,75.9,68.9,29.94,North,0,0.0,0.0,79,0.00,CLR,FEW,0.00,WeatherDisplay:10.37,2013-06-27 05:49:00,
2013-06-27 01:54:00,75.9,68.9,29.94,North,0,0.0,0.0,79,0.00,CLR,FEW,0.00,WeatherDisplay:10.37,2013-06-27 05:54:00,
2013-06-27 01:59:00,75.9,68.9,29.94,North,0,0.0,0.0,79,0.00,CLR,FEW,0.00,WeatherDisplay:10.37,2013-06-27 05:59:00,
2013-06-27 02:04:00,75.7,68.8,29.94,North,0,0.0,0.0,79,0.00,CLR,FEW,0.00,WeatherDisplay:10.37,2013-06-27 06:04:00,
2013-06-27 02:08:00,75.7,68.8,29.94,North,0,0.0,0.0,79,0.00,CLR,FEW,0.00,WeatherDisplay:10.37,2013-06-27 06:08:00,
2013-06-27 02:14:00,75.6,68.6,29.94,North,0,0.0,0.0,79,0.00,CLR,FEW,0.00,WeatherDisplay:10.37,2013-06-27 06:14:00,
2013-06-27 02:18:00,75.6,69.0,29.94,North,0,0.0,0.0,80,0.00,CLR,FEW,0.00,WeatherDisplay:10.37,2013-06-27 06:18:00,
2013-06-27 02:23:00,75.6,69.0,29.94,North,0,0.0,0.0,80,0.00,CLR,FEW,0.00,WeatherDisplay:10.37,2013-06-27 06:23:00,
2013-06-27 02:28:00,75.6,69.0,29.94,North,0,0.0,0.0,80,0.00,CLR,FEW,0.00,WeatherDisplay:10.37,2013-06-27 06:28:00,
2013-06-27 02:33:00,75.6,69.0,29.94,North,0,0.0,0.0,80,0.00,CLR,FEW,0.00,WeatherDisplay:10.37,2013-06-27 06:33:00,
2013-06-27 02:38:00,75.6,69.0,29.94,North,0,0.0,0.0,80,0.00,CLR,FEW,0.00,WeatherDisplay:10.37,2013-06-27 06:38:00,
2013-06-27 02:43:00,75.6,69.0,29.94,North,0,0.0,0.0,80,0.00,CLR,FEW,0.00,WeatherDisplay:10.37,2013-06-27 06:43:00,
2013-06-27 02:48:00,75.7,69.5,29.94,North,0,0.0,0.0,81,0.00,CLR,FEW,0.00,WeatherDisplay:10.37,2013-06-27 06:48:00,
2013-06-27 02:53:00,75.9,69.7,29.94,North,0,0.0,0.0,81,0.00,CLR,FEW,0.00,WeatherDisplay:10.37,2013-06-27 06:53:00,
2013-06-27 02:58:00,75.9,70.0,29.94,North,0,0.0,0.0,82,0.00,CLR,FEW,0.00,WeatherDisplay:10.37,2013-06-27 06:58:00,
2013-06-27 03:03:00,76.1,70.6,29.94,North,0,0.0,0.0,83,0.00,CLR,FEW,0.00,WeatherDisplay:10.37,2013-06-27 07:03:00,
2013-06-27 03:08:00,76.1,70.9,29.94,North,0,0.0,0.0,84,0.00,CLR,FEW,0.00,WeatherDisplay:10.37,2013-06-27 07:08:00,
2013-06-27 03:13:00,76.3,71.1,29.94,North,0,0.0,0.0,84,0.00,CLR,FEW,0.00,WeatherDisplay:10.37,2013-06-27 07:13:00,
2013-06-27 03:18:00,76.5,71.6,29.94,North,0,0.0,0.0,85,0.00,CLR,FEW,0.00,WeatherDisplay:10.37,2013-06-27 07:18:00,
2013-06-27 03:23:00,76.5,71.6,29.94,North,0,0.0,0.0,85,0.00,CLR,FEW,0.00,WeatherDisplay:10.37,2013-06-27 07:23:00,
2013-06-27 03:28:00,76.6,71.8,29.94,North,0,0.0,0.0,85,0.00,CLR,FEW,0.00,WeatherDisplay:10.37,2013-06-27 07:28:00,
2013-06-27 03:33:00,76.6,71.8,29.94,North,0,0.0,0.0,85,0.00,CLR,FEW,0.00,WeatherDisplay:10.37,2013-06-27 07:33:00,
2013-06-27 03:38:00,76.6,72.1,29.94,North,0,0.0,0.0,86,0.00,CLR,FEW,0.00,WeatherDisplay:10.37,2013-06-27 07:38:00,
2013-06-27 03:43:00,76.6,72.1,29.94,North,0,0.0,0.0,86,0.00,CLR,FEW,0.00,WeatherDisplay:10.37,2013-06-27 07:43:00,
2013-06-27 03:48:00,76.6,72.1,29.94,North,0,0.0,0.0,86,0.00,CLR,FEW,0.00,WeatherDisplay:10.37,2013-06-27 07:48:00,
2013-06-27 03:53:00,76.8,72.7,29.94,North,0,0.0,0.0,87,0.00,CLR,FEW,0.00,WeatherDisplay:10.37,2013-06-27 07:53:00,
2013-06-27 03:58:00,77.0,72.5,29.94,North,0,0.0,0.0,86,0.00,CLR,FEW,0.00,WeatherDisplay:10.37,2013-06-27 07:58:00,
2013-06-27 04:03:00,77.0,72.5,29.94,North,0,0.0,0.0,86,0.00,CLR,FEW,0.00,WeatherDisplay:10.37,2013-06-27 08:03:00,
2013-06-27 04:08:00,77.0,72.5,29.94,North,0,0.0,0.0,86,0.00,CLR,FEW,0.00,WeatherDisplay:10.37,2013-06-27 08:08:00,
2013-06-27 04:13:00,77.0,72.5,29.94,North,0,0.0,0.0,86,0.00,CLR,FEW,0.00,WeatherDisplay:10.37,2013-06-27 08:13:00,
2013-06-27 04:18:00,77.2,72.7,29.94,North,0,0.0,0.0,86,0.00,CLR,FEW,0.00,WeatherDisplay:10.37,2013-06-27 08:18:00,
2013-06-27 04:23:00,77.2,72.3,29.94,North,0,0.0,0.0,85,0.00,CLR,FEW,0.00,WeatherDisplay:10.37,2013-06-27 08:23:00,
2013-06-27 04:28:00,77.2,72.7,29.94,North,0,0.0,0.0,86,0.00,CLR,FEW,0.00,WeatherDisplay:10.37,2013-06-27 08:28:00,
2013-06-27 04:33:00,77.4,72.8,29.91,North,0,0.0,0.0,86,0.00,CLR,FEW,0.00,WeatherDisplay:10.37,2013-06-27 08:33:00,
2013-06-27 04:38:00,77.4,72.5,29.91,North,0,0.0,0.0,85,0.00,CLR,FEW,0.00,WeatherDisplay:10.37,2013-06-27 08:38:00,
2013-06-27 04:43:00,77.4,72.5,29.91,North,0,0.0,0.0,85,0.00,CLR,FEW,0.00,WeatherDisplay:10.37,2013-06-27 08:43:00,
2013-06-27 04:48:00,77.4,72.5,29.91,North,0,0.0,0.0,85,0.00,CLR,FEW,0.00,WeatherDisplay:10.37,2013-06-27 08:48:00,
2013-06-27 04:53:00,77.4,72.5,29.91,North,0,0.0,0.0,85,0.00,CLR,FEW,0.00,WeatherDisplay:10.37,2013-06-27 08:53:00,
2013-06-27 04:58:00,77.4,72.5,29.91,North,0,0.0,0.0,85,0.00,CLR,FEW,0.00,WeatherDisplay:10.37,2013-06-27 08:58:00,
2013-06-27 05:03:00,77.5,72.7,29.91,North,0,0.0,0.0,85,0.00,CLR,FEW,0.00,WeatherDisplay:10.37,2013-06-27 09:03:00,
2013-06-27 05:08:00,77.5,72.3,29.91,North,0,0.0,0.0,84,0.00,CLR,FEW,0.00,WeatherDisplay:10.37,2013-06-27 09:08:00,
2013-06-27 05:13:00,77.5,72.0,29.91,North,0,0.0,0.0,83,0.00,CLR,FEW,0.00,WeatherDisplay:10.37,2013-06-27 09:13:00,
2013-06-27 05:18:00,77.5,72.0,29.94,North,0,0.0,0.0,83,0.00,CLR,FEW,0.00,WeatherDisplay:10.37,2013-06-27 09:18:00,
2013-06-27 05:23:00,77.4,71.8,29.94,North,0,0.0,0.0,83,0.00,CLR,FEW,0.00,WeatherDisplay:10.37,2013-06-27 09:23:00,
2013-06-27 05:28:00,77.4,72.1,29.94,North,0,0.0,0.0,84,0.00,CLR,FEW,0.00,WeatherDisplay:10.37,2013-06-27 09:28:00,
2013-06-27 05:33:00,77.5,72.7,29.91,North,0,0.0,0.0,85,0.00,CLR,FEW,0.00,WeatherDisplay:10.37,2013-06-27 09:33:00,
2013-06-27 05:38:00,77.5,72.7,29.91,North,0,0.0,0.0,85,0.00,CLR,FEW,0.00,WeatherDisplay:10.37,2013-06-27 09:38:00,
2013-06-27 05:43:00,77.4,72.5,29.91,North,0,0.0,0.0,85,0.00,CLR,FEW,0.00,WeatherDisplay:10.37,2013-06-27 09:43:00,
2013-06-27 05:48:00,77.4,72.5,29.91,North,0,0.0,0.0,85,0.00,CLR,FEW,0.00,WeatherDisplay:10.37,2013-06-27 09:48:00,
2013-06-27 05:53:00,77.4,72.5,29.91,North,0,0.0,0.0,85,0.00,CLR,FEW,0.00,WeatherDisplay:10.37,2013-06-27 09:53:00,
2013-06-27 05:58:00,77.4,72.5,29.91,North,0,0.0,0.0,85,0.00,CLR,FEW,0.00,WeatherDisplay:10.37,2013-06-27 09:58:00,
2013-06-27 06:03:00,77.4,72.8,29.91,North,0,0.0,0.0,86,0.00,CLR,FEW,0.00,WeatherDisplay:10.37,2013-06-27 10:03:00,
2013-06-27 06:08:00,77.4,72.8,29.91,North,0,0.0,0.0,86,0.00,CLR,FEW,0.00,WeatherDisplay:10.37,2013-06-27 10:08:00,
2013-06-27 06:13:00,77.4,72.8,29.91,North,0,0.0,0.0,86,0.00,CLR,FEW,0.00,WeatherDisplay:10.37,2013-06-27 10:13:00,
2013-06-27 06:18:00,77.2,72.7,29.91,North,0,0.0,0.0,86,0.00,CLR,FEW,0.00,WeatherDisplay:10.37,2013-06-27 10:18:00,
2013-06-27 06:23:00,77.4,72.8,29.91,North,0,0.0,0.0,86,0.00,CLR,FEW,0.00,WeatherDisplay:10.37,2013-06-27 10:23:00,
2013-06-27 06:28:00,77.4,73.2,29.91,North,0,0.0,0.0,87,0.00,CLR,FEW,0.00,WeatherDisplay:10.37,2013-06-27 10:28:00,
2013-06-27 06:33:00,77.4,72.8,29.91,North,0,0.0,0.0,86,0.00,CLR,FEW,0.00,WeatherDisplay:10.37,2013-06-27 10:33:00,
2013-06-27 06:38:00,77.4,72.8,29.91,North,0,0.0,0.0,86,0.00,CLR,FEW,0.00,WeatherDisplay:10.37,2013-06-27 10:38:00,
2013-06-27 06:43:00,77.4,72.8,29.91,North,0,0.0,0.0,86,0.00,CLR,FEW,0.00,WeatherDisplay:10.37,2013-06-27 10:43:00,
2013-06-27 06:48:00,77.4,72.8,29.91,North,0,0.0,0.0,86,0.00,CLR,FEW,0.00,WeatherDisplay:10.37,2013-06-27 10:48:00,
2013-06-27 06:53:00,77.4,73.2,29.91,North,0,0.0,0.0,87,0.00,CLR,FEW,0.00,WeatherDisplay:10.37,2013-06-27 10:53:00,
2013-06-27 06:58:00,77.5,73.4,29.91,North,0,0.0,0.0,87,0.00,CLR,FEW,0.00,WeatherDisplay:10.37,2013-06-27 10:58:00,
2013-06-27 07:03:00,77.5,73.0,29.91,North,0,0.0,0.0,86,0.00,CLR,FEW,0.00,WeatherDisplay:10.37,2013-06-27 11:03:00,
2013-06-27 07:08:00,77.5,73.0,29.91,North,0,0.0,0.0,86,0.00,CLR,FEW,0.00,WeatherDisplay:10.37,2013-06-27 11:08:00,
2013-06-27 07:13:00,77.5,72.7,29.91,North,0,0.0,0.0,85,0.00,CLR,FEW,0.00,WeatherDisplay:10.37,2013-06-27 11:13:00,
2013-06-27 07:18:00,77.7,72.8,29.91,North,0,0.0,0.0,85,0.00,CLR,FEW,0.00,WeatherDisplay:10.37,2013-06-27 11:18:00,
2013-06-27 07:23:00,77.9,72.7,29.91,North,0,0.0,0.0,84,0.00,CLR,FEW,0.00,WeatherDisplay:10.37,2013-06-27 11:23:00,
2013-06-27 07:28:00,78.1,72.5,29.91,North,0,0.0,0.0,83,0.00,CLR,FEW,0.00,WeatherDisplay:10.37,2013-06-27 11:28:00,
2013-06-27 07:33:00,78.4,72.1,29.91,North,0,0.0,0.0,81,0.00,CLR,FEW,0.00,WeatherDisplay:10.37,2013-06-27 11:33:00,
2013-06-27 07:38:00,78.6,70.8,29.91,North,0,0.0,0.0,77,0.00,CLR,FEW,0.00,WeatherDisplay:10.37,2013-06-27 11:38:00,
2013-06-27 07:43:00,79.0,69.6,29.91,North,0,0.0,0.0,73,0.00,CLR,FEW,0.00,WeatherDisplay:10.37,2013-06-27 11:43:00,
2013-06-27 07:48:00,79.2,67.7,29.94,North,0,0.0,0.0,68,0.00,CLR,FEW,0.00,WeatherDisplay:10.37,2013-06-27 11:48:00,
2013-06-27 07:53:00,79.5,66.3,29.94,North,0,0.0,0.0,64,0.00,CLR,FEW,0.00,WeatherDisplay:10.37,2013-06-27 11:53:00,
2013-06-27 07:58:00,79.5,64.9,29.94,North,0,0.0,0.0,61,0.00,CLR,FEW,0.00,WeatherDisplay:10.37,2013-06-27 11:58:00,
2013-06-27 08:03:00,79.7,65.1,29.94,North,0,0.0,0.0,61,0.00,CLR,FEW,0.00,WeatherDisplay:10.37,2013-06-27 12:03:00,
2013-06-27 08:08:00,79.7,64.1,29.94,North,0,0.0,0.0,59,0.00,CLR,FEW,0.00,WeatherDisplay:10.37,2013-06-27 12:08:00,
2013-06-27 08:13:00,79.7,64.6,29.94,North,0,0.0,0.0,60,0.00,CLR,FEW,0.00,WeatherDisplay:10.37,2013-06-27 12:13:00,
2013-06-27 08:18:00,79.5,65.4,29.91,North,0,0.0,0.0,62,0.00,CLR,FEW,0.00,WeatherDisplay:10.37,2013-06-27 12:18:00,
2013-06-27 08:23:00,79.3,65.6,29.91,North,0,0.0,0.0,63,0.00,CLR,FEW,0.00,WeatherDisplay:10.37,2013-06-27 12:23:00,
2013-06-27 08:28:00,79.2,65.9,29.91,North,0,0.0,0.0,64,0.00,CLR,FEW,0.00,WeatherDisplay:10.37,2013-06-27 12:28:00,
2013-06-27 08:33:00,79.3,66.5,29.91,North,0,0.0,0.0,65,0.00,CLR,FEW,0.00,WeatherDisplay:10.37,2013-06-27 12:33:00,
2013-06-27 08:38:00,80.1,67.7,29.91,North,0,0.0,0.0,66,0.00,CLR,FEW,0.00,WeatherDisplay:10.37,2013-06-27 12:38:00,
2013-06-27 08:43:00,81.0,66.2,29.91,North,0,0.0,0.0,61,0.00,CLR,FEW,0.00,WeatherDisplay:10.37,2013-06-27 12:43:00,
2013-06-27 08:48:00,81.3,66.1,29.91,North,0,0.0,0.0,60,0.00,CLR,FEW,0.00,WeatherDisplay:10.37,2013-06-27 12:48:00,
2013-06-27 08:53:00,81.3,63.6,29.91,North,0,0.0,0.0,55,0.00,CLR,FEW,0.00,WeatherDisplay:10.37,2013-06-27 12:53:00,
2013-06-27 08:58:00,81.9,64.6,29.91,North,0,0.0,0.0,56,0.00,CLR,FEW,0.00,WeatherDisplay:10.37,2013-06-27 12:58:00,
2013-06-27 09:03:00,82.4,63.5,29.91,North,0,0.0,0.0,53,0.00,CLR,FEW,0.00,WeatherDisplay:10.37,2013-06-27 13:03:00,
2013-06-27 09:08:00,82.9,63.0,29.91,North,0,0.0,0.0,51,0.00,CLR,FEW,0.00,WeatherDisplay:10.37,2013-06-27 13:08:00,
2013-06-27 09:13:00,83.7,62.5,29.91,North,0,0.0,0.0,49,0.00,CLR,FEW,0.00,WeatherDisplay:10.37,2013-06-27 13:13:00,
2013-06-27 09:18:00,83.8,62.1,29.91,North,0,0.0,0.0,48,0.00,CLR,FEW,0.00,WeatherDisplay:10.37,2013-06-27 13:18:00,
2013-06-27 09:23:00,84.2,60.6,29.91,North,0,0.0,0.0,45,0.00,CLR,FEW,0.00,WeatherDisplay:10.37,2013-06-27 13:23:00,
2013-06-27 09:28:00,84.4,60.7,29.91,North,0,0.0,0.0,45,0.00,CLR,FEW,0.00,WeatherDisplay:10.37,2013-06-27 13:28:00,
2013-06-27 09:33:00,84.9,61.2,29.91,North,0,0.0,0.0,45,0.00,CLR,FEW,0.00,WeatherDisplay:10.37,2013-06-27 13:33:00,
2013-06-27 09:38:00,85.5,59.8,29.91,North,0,0.0,0.0,42,0.00,CLR,FEW,0.00,WeatherDisplay:10.37,2013-06-27 13:38:00,
2013-06-27 09:43:00,85.5,59.8,29.91,North,0,0.0,0.0,42,0.00,CLR,FEW,0.00,WeatherDisplay:10.37,2013-06-27 13:43:00,
2013-06-27 09:48:00,85.6,60.6,29.91,North,0,0.0,0.0,43,0.00,CLR,FEW,0.00,WeatherDisplay:10.37,2013-06-27 13:48:00,
2013-06-27 09:53:00,86.2,59.7,29.91,North,0,0.0,0.0,41,0.00,CLR,FEW,0.00,WeatherDisplay:10.37,2013-06-27 13:53:00,
2013-06-27 09:58:00,86.9,59.7,29.91,North,0,0.0,0.0,40,0.00,CLR,FEW,0.00,WeatherDisplay:10.37,2013-06-27 13:58:00,
2013-06-27 10:03:00,87.1,59.1,29.91,North,0,0.0,0.0,39,0.00,CLR,FEW,0.00,WeatherDisplay:10.37,2013-06-27 14:03:00,
2013-06-27 10:08:00,87.1,58.4,29.91,North,0,0.0,0.0,38,0.00,CLR,FEW,0.00,WeatherDisplay:10.37,2013-06-27 14:08:00,
2013-06-27 10:13:00,87.1,58.4,29.91,North,0,0.0,0.0,38,0.00,CLR,FEW,0.00,WeatherDisplay:10.37,2013-06-27 14:13:00,
2013-06-27 10:18:00,87.1,57.7,29.91,North,0,0.0,0.0,37,0.00,CLR,FEW,0.00,WeatherDisplay:10.37,2013-06-27 14:18:00,
2013-06-27 10:23:00,87.3,57.8,29.91,North,0,0.0,0.0,37,0.00,CLR,FEW,0.00,WeatherDisplay:10.37,2013-06-27 14:23:00,
2013-06-27 10:28:00,87.4,57.2,29.91,North,0,0.0,0.0,36,0.00,CLR,FEW,0.00,WeatherDisplay:10.37,2013-06-27 14:28:00,
2013-06-27 10:33:00,88.0,56.9,29.91,North,0,0.0,0.0,35,0.00,CLR,FEW,0.00,WeatherDisplay:10.37,2013-06-27 14:33:00,
2013-06-27 10:38:00,88.5,56.6,29.91,North,0,0.0,0.0,34,0.00,CLR,FEW,0.00,WeatherDisplay:10.37,2013-06-27 14:38:00,
2013-06-27 10:43:00,88.5,55.7,29.91,North,0,0.0,0.0,33,0.00,CLR,FEW,0.00,WeatherDisplay:10.37,2013-06-27 14:43:00,
2013-06-27 10:48:00,88.3,56.4,29.91,North,0,0.0,0.0,34,0.00,CLR,FEW,0.00,WeatherDisplay:10.37,2013-06-27 14:48:00,
2013-06-27 10:53:00,88.3,56.4,29.91,North,0,0.0,0.0,34,0.00,CLR,FEW,0.00,WeatherDisplay:10.37,2013-06-27 14:53:00,
2013-06-27 10:58:00,88.7,55.1,29.91,North,0,0.0,0.0,32,0.00,CLR,FEW,0.00,WeatherDisplay:10.37,2013-06-27 14:58:00,
2013-06-27 11:03:00,88.5,54.9,29.91,North,0,0.0,0.0,32,0.00,CLR,FEW,0.00,WeatherDisplay:10.37,2013-06-27 15:03:00,
2013-06-27 11:08:00,88.0,55.3,29.91,North,0,0.0,0.0,33,0.00,CLR,FEW,0.00,WeatherDisplay:10.37,2013-06-27 15:08:00,
2013-06-27 11:13:00,87.8,55.9,29.91,North,0,0.0,0.0,34,0.00,CLR,FEW,0.00,WeatherDisplay:10.37,2013-06-27 15:13:00,
2013-06-27 11:19:00,88.5,56.6,29.91,North,0,0.0,0.0,34,0.00,CLR,FEW,0.00,WeatherDisplay:10.37,2013-06-27 15:19:00,
2013-06-27 11:24:00,88.9,58.5,29.91,North,0,0.0,0.0,36,0.00,CLR,FEW,0.00,WeatherDisplay:10.37,2013-06-27 15:24:00,
2013-06-27 11:29:00,88.5,59.7,29.91,North,0,0.0,0.0,38,0.00,CLR,FEW,0.00,WeatherDisplay:10.37,2013-06-27 15:29:00,
2013-06-27 11:34:00,88.0,58.4,29.91,North,0,0.0,0.0,37,0.00,CLR,FEW,0.00,WeatherDisplay:10.37,2013-06-27 15:34:00,
2013-06-27 11:39:00,87.6,59.6,29.91,North,0,0.0,0.0,39,0.00,CLR,FEW,0.00,WeatherDisplay:10.37,2013-06-27 15:39:00,
2013-06-27 11:44:00,88.2,59.4,29.91,North,0,0.0,0.0,38,0.00,CLR,FEW,0.00,WeatherDisplay:10.37,2013-06-27 15:44:00,
2013-06-27 11:49:00,88.3,60.2,29.88,North,0,0.0,0.0,39,0.00,CLR,FEW,0.00,WeatherDisplay:10.37,2013-06-27 15:49:00,
2013-06-27 11:54:00,88.7,60.6,29.88,North,0,0.0,0.0,39,0.00,CLR,FEW,0.00,WeatherDisplay:10.37,2013-06-27 15:54:00,
2013-06-27 11:59:00,88.2,59.4,29.88,North,0,0.0,0.0,38,0.00,CLR,FEW,0.00,WeatherDisplay:10.37,2013-06-27 15:59:00,
2013-06-27 12:04:00,86.9,59.7,29.91,North,0,0.0,0.0,40,0.00,CLR,FEW,0.00,WeatherDisplay:10.37,2013-06-27 16:04:00,
2013-06-27 12:09:00,86.5,60.0,29.91,North,0,0.0,0.0,41,0.00,CLR,FEW,0.00,WeatherDisplay:10.37,2013-06-27 16:09:00,
2013-06-27 12:14:00,86.9,61.0,29.91,North,0,0.0,0.0,42,0.00,CLR,FEW,0.00,WeatherDisplay:10.37,2013-06-27 16:14:00,
2013-06-27 12:19:00,87.6,60.3,29.88,North,0,0.0,0.0,40,0.00,CLR,FEW,0.00,WeatherDisplay:10.37,2013-06-27 16:19:00,
2013-06-27 12:24:00,88.3,60.2,29.88,North,0,0.0,0.0,39,0.00,CLR,FEW,0.00,WeatherDisplay:10.37,2013-06-27 16:24:00,
2013-06-27 12:29:00,88.7,59.8,29.88,North,0,0.0,0.0,38,0.00,CLR,FEW,0.00,WeatherDisplay:10.37,2013-06-27 16:29:00,
2013-06-27 12:34:00,87.8,60.5,29.88,North,0,0.0,0.0,40,0.00,CLR,FEW,0.00,WeatherDisplay:10.37,2013-06-27 16:34:00,
2013-06-27 12:39:00,87.8,61.2,29.88,North,0,0.0,0.0,41,0.00,CLR,FEW,0.00,WeatherDisplay:10.37,2013-06-27 16:39:00,
2013-06-27 12:44:00,87.8,59.8,29.88,North,0,0.0,0.0,39,0.00,CLR,FEW,0.00,WeatherDisplay:10.37,2013-06-27 16:44:00,
2013-06-27 12:49:00,87.6,61.0,29.88,North,0,0.0,0.0,41,0.00,CLR,FEW,0.00,WeatherDisplay:10.37,2013-06-27 16:49:00,
2013-06-27 12:54:00,87.3,60.7,29.88,North,0,0.0,0.0,41,0.00,CLR,FEW,0.00,WeatherDisplay:10.37,2013-06-27 16:54:00,
2013-06-27 12:59:00,87.4,62.2,29.88,North,0,0.0,0.0,43,0.00,CLR,FEW,0.00,WeatherDisplay:10.37,2013-06-27 16:59:00,
2013-06-27 13:04:00,87.1,61.2,29.88,North,0,0.0,0.0,42,0.00,CLR,FEW,0.00,WeatherDisplay:10.37,2013-06-27 17:04:00,
2013-06-27 13:09:00,87.1,61.9,29.88,North,0,0.0,0.0,43,0.00,CLR,FEW,0.00,WeatherDisplay:10.37,2013-06-27 17:09:00,
2013-06-27 13:14:00,86.7,62.2,29.88,North,0,0.0,0.0,44,0.00,CLR,FEW,0.00,WeatherDisplay:10.37,2013-06-27 17:14:00,
2013-06-27 13:19:00,86.2,62.3,29.88,North,0,0.0,0.0,45,0.00,CLR,FEW,0.00,WeatherDisplay:10.37,2013-06-27 17:19:00,
2013-06-27 13:24:00,85.6,63.7,29.88,North,0,0.0,0.0,48,0.00,CLR,FEW,0.00,WeatherDisplay:10.37,2013-06-27 17:24:00,
2013-06-27 13:29:00,85.6,64.3,29.88,North,0,0.0,0.0,49,0.00,CLR,FEW,0.00,WeatherDisplay:10.37,2013-06-27 17:29:00,
2013-06-27 13:34:00,85.3,64.0,29.88,North,0,0.0,0.0,49,0.00,CLR,FEW,0.00,WeatherDisplay:10.37,2013-06-27 17:34:00,
2013-06-27 13:39:00,84.6,65.0,29.88,North,0,0.0,0.0,52,0.00,CLR,FEW,0.00,WeatherDisplay:10.37,2013-06-27 17:39:00,
2013-06-27 13:44:00,84.9,68.0,29.88,North,0,0.0,0.0,57,0.00,CLR,FEW,0.00,WeatherDisplay:10.37,2013-06-27 17:44:00,
2013-06-27 13:48:00,85.1,67.1,29.88,North,0,0.0,0.0,55,0.00,CLR,FEW,0.00,WeatherDisplay:10.37,2013-06-27 17:48:00,
2013-06-27 13:53:00,85.5,67.4,29.88,North,0,0.0,0.0,55,0.00,CLR,FEW,0.00,WeatherDisplay:10.37,2013-06-27 17:53:00,
2013-06-27 13:58:00,86.2,67.6,29.88,North,0,0.0,0.0,54,0.00,CLR,FEW,0.00,WeatherDisplay:10.37,2013-06-27 17:58:00,
2013-06-27 14:03:00,86.9,66.6,29.85,North,0,0.0,0.0,51,0.00,CLR,FEW,0.00,WeatherDisplay:10.37,2013-06-27 18:03:00,
2013-06-27 14:08:00,87.1,64.4,29.85,North,0,0.0,0.0,47,0.00,CLR,FEW,0.00,WeatherDisplay:10.37,2013-06-27 18:08:00,
2013-06-27 14:13:00,87.1,64.4,29.85,North,0,0.0,0.0,47,0.00,CLR,FEW,0.00,WeatherDisplay:10.37,2013-06-27 18:13:00,
2013-06-27 14:18:00,86.4,63.8,29.85,North,0,0.0,0.0,47,0.00,CLR,FEW,0.00,WeatherDisplay:10.37,2013-06-27 18:18:00,
2013-06-27 14:23:00,86.2,66.5,29.85,North,0,0.0,0.0,52,0.00,CLR,FEW,0.00,WeatherDisplay:10.37,2013-06-27 18:23:00,
2013-06-27 14:28:00,85.6,65.4,29.85,North,0,0.0,0.0,51,0.00,CLR,FEW,0.00,WeatherDisplay:10.37,2013-06-27 18:28:00,
2013-06-27 14:33:00,85.3,65.1,29.85,North,0,0.0,0.0,51,0.00,CLR,FEW,0.00,WeatherDisplay:10.37,2013-06-27 18:33:00,
2013-06-27 14:38:00,85.3,66.2,29.85,North,0,0.0,0.0,53,0.00,CLR,FEW,0.00,WeatherDisplay:10.37,2013-06-27 18:38:00,
2013-06-27 14:43:00,85.5,65.8,29.85,North,0,0.0,0.0,52,0.00,CLR,FEW,0.00,WeatherDisplay:10.37,2013-06-27 18:43:00,
2013-06-27 14:48:00,84.6,65.5,29.83,North,0,0.0,0.0,53,0.00,CLR,FEW,0.00,WeatherDisplay:10.37,2013-06-27 18:48:00,
2013-06-27 14:53:00,83.8,67.5,29.83,North,0,0.0,0.0,58,0.00,CLR,FEW,0.00,WeatherDisplay:10.37,2013-06-27 18:53:00,
2013-06-27 14:58:00,83.3,68.0,29.83,North,0,0.0,0.0,60,0.00,CLR,FEW,0.00,WeatherDisplay:10.37,2013-06-27 18:58:00,
2013-06-27 15:03:00,82.9,68.6,29.83,North,0,0.0,0.0,62,0.00,CLR,FEW,0.00,WeatherDisplay:10.37,2013-06-27 19:03:00,
2013-06-27 15:08:00,82.6,68.7,29.83,North,0,0.0,0.0,63,0.00,CLR,FEW,0.00,WeatherDisplay:10.37,2013-06-27 19:08:00,
2013-06-27 15:13:00,82.8,69.8,29.83,North,0,0.0,0.0,65,0.00,CLR,FEW,0.00,WeatherDisplay:10.37,2013-06-27 19:13:00,
2013-06-27 15:18:00,82.4,70.3,29.83,North,0,0.0,0.0,67,0.08,RA,FEW,0.08,WeatherDisplay:10.37,2013-06-27 19:18:00,
2013-06-27 15:23:00,81.5,69.9,29.83,North,0,0.0,0.0,68,0.08,RA,FEW,0.08,WeatherDisplay:10.37,2013-06-27 19:23:00,
2013-06-27 15:28:00,80.4,68.9,29.83,North,0,0.0,0.0,68,0.08,,FEW,0.08,WeatherDisplay:10.37,2013-06-27 19:28:00,
2013-06-27 15:33:00,79.7,68.2,29.83,North,0,0.0,0.0,68,0.08,CLR,FEW,0.08,WeatherDisplay:10.37,2013-06-27 19:33:00,
2013-06-27 15:38:00,79.0,67.1,29.83,North,0,0.0,0.0,67,0.08,CLR,FEW,0.08,WeatherDisplay:10.37,2013-06-27 19:38:00,
2013-06-27 15:43:00,78.8,67.3,29.83,North,0,0.0,0.0,68,0.08,CLR,FEW,0.08,WeatherDisplay:10.37,2013-06-27 19:43:00,
2013-06-27 15:48:00,78.3,65.5,29.85,North,0,0.0,0.0,65,0.08,CLR,FEW,0.08,WeatherDisplay:10.37,2013-06-27 19:48:00,
2013-06-27 15:53:00,78.4,61.9,29.85,North,0,0.0,0.0,57,0.08,CLR,FEW,0.08,WeatherDisplay:10.37,2013-06-27 19:53:00,
2013-06-27 15:58:00,78.3,57.0,29.85,North,0,0.0,0.0,48,0.08,CLR,FEW,0.08,WeatherDisplay:10.37,2013-06-27 19:58:00,
2013-06-27 16:03:00,77.4,56.1,29.85,North,0,0.0,0.0,48,0.08,CLR,FEW,0.08,WeatherDisplay:10.37,2013-06-27 20:03:00,
2013-06-27 16:08:00,76.3,55.1,29.85,North,0,0.0,0.0,48,0.08,CLR,FEW,0.08,WeatherDisplay:10.37,2013-06-27 20:08:00,
2013-06-27 16:13:00,75.0,55.7,29.85,North,0,0.0,0.0,51,0.08,CLR,FEW,0.08,WeatherDisplay:10.37,2013-06-27 20:13:00,
2013-06-27 16:18:00,74.7,57.9,29.85,North,0,0.0,0.0,56,0.00,CLR,FEW,0.08,WeatherDisplay:10.37,2013-06-27 20:18:00,
2013-06-27 16:23:00,74.5,58.2,29.85,North,0,0.0,0.0,57,0.00,CLR,FEW,0.08,WeatherDisplay:10.37,2013-06-27 20:23:00,
2013-06-27 16:28:00,74.5,57.8,29.85,North,0,0.0,0.0,56,0.00,CLR,FEW,0.08,WeatherDisplay:10.37,2013-06-27 20:28:00,
2013-06-27 16:33:00,74.7,57.9,29.83,North,0,0.0,0.0,56,0.00,CLR,FEW,0.08,WeatherDisplay:10.37,2013-06-27 20:33:00,
2013-06-27 16:38:00,74.8,59.5,29.83,North,0,0.0,0.0,59,0.00,CLR,FEW,0.08,WeatherDisplay:10.37,2013-06-27 20:38:00,
2013-06-27 16:43:00,75.2,59.9,29.83,North,0,0.0,0.0,59,0.00,CLR,FEW,0.08,WeatherDisplay:10.37,2013-06-27 20:43:00,
2013-06-27 16:48:00,75.6,59.7,29.83,North,0,0.0,0.0,58,0.00,CLR,FEW,0.08,WeatherDisplay:10.37,2013-06-27 20:48:00,
2013-06-27 16:54:00,75.9,57.6,29.83,North,0,0.0,0.0,53,0.00,CLR,FEW,0.08,WeatherDisplay:10.37,2013-06-27 20:54:00,
2013-06-27 16:59:00,76.1,55.0,29.83,North,0,0.0,0.0,48,0.00,CLR,FEW,0.08,WeatherDisplay:10.37,2013-06-27 20:59:00,
2013-06-27 17:04:00,76.1,55.0,29.80,North,0,0.0,0.0,48,0.00,CLR,FEW,0.08,WeatherDisplay:10.37,2013-06-27 21:04:00,
2013-06-27 17:20:00,76.8,55.6,29.80,North,0,0.0,0.0,48,0.00,CLR,FEW,0.08,WeatherDisplay:10.37,2013-06-27 21:20:00,
2013-06-27 17:26:00,76.6,56.6,29.80,North,0,0.0,0.0,50,0.00,CLR,FEW,0.08,WeatherDisplay:10.37,2013-06-27 21:26:00,
2013-06-27 17:31:00,76.6,56.6,29.80,North,0,0.0,0.0,50,0.00,CLR,FEW,0.08,WeatherDisplay:10.37,2013-06-27 21:31:00,
2013-06-27 17:36:00,77.0,55.8,29.80,North,0,0.0,0.0,48,0.00,CLR,FEW,0.08,WeatherDisplay:10.37,2013-06-27 21:36:00,
2013-06-27 17:41:00,77.4,53.7,29.80,North,0,0.0,0.0,44,0.00,CLR,FEW,0.08,WeatherDisplay:10.37,2013-06-27 21:41:00,
2013-06-27 17:46:00,77.9,53.6,29.80,North,0,0.0,0.0,43,0.00,CLR,FEW,0.08,WeatherDisplay:10.37,2013-06-27 21:46:00,
2013-06-27 17:51:00,78.6,54.2,29.80,North,0,0.0,0.0,43,0.00,CLR,FEW,0.08,WeatherDisplay:10.37,2013-06-27 21:51:00,
2013-06-27 17:56:00,79.2,55.4,29.80,North,0,0.0,0.0,44,0.00,CLR,FEW,0.08,WeatherDisplay:10.37,2013-06-27 21:56:00,
2013-06-27 18:01:00,79.5,56.9,29.80,North,0,0.0,0.0,46,0.00,CLR,FEW,0.08,WeatherDisplay:10.37,2013-06-27 22:01:00,
2013-06-27 18:06:00,79.7,60.0,29.80,North,0,0.0,0.0,51,0.00,CLR,FEW,0.08,WeatherDisplay:10.37,2013-06-27 22:06:00,
2013-06-27 18:11:00,79.9,61.7,29.80,North,0,0.0,0.0,54,0.00,CLR,FEW,0.08,WeatherDisplay:10.37,2013-06-27 22:11:00,
2013-06-27 18:16:00,79.9,62.8,29.80,North,0,0.0,0.0,56,0.00,CLR,FEW,0.08,WeatherDisplay:10.37,2013-06-27 22:16:00,
2013-06-27 18:21:00,80.1,64.4,29.80,North,0,0.0,0.0,59,0.00,CLR,FEW,0.08,WeatherDisplay:10.37,2013-06-27 22:21:00,
2013-06-27 18:26:00,80.1,64.9,29.80,North,0,0.0,0.0,60,0.00,CLR,FEW,0.08,WeatherDisplay:10.37,2013-06-27 22:26:00,
2013-06-27 18:32:00,80.1,65.9,29.80,North,0,0.0,0.0,62,0.00,CLR,FEW,0.08,WeatherDisplay:10.37,2013-06-27 22:32:00,
2013-06-27 18:37:00,80.1,66.3,29.80,North,0,0.0,0.0,63,0.00,CLR,FEW,0.08,WeatherDisplay:10.37,2013-06-27 22:37:00,
2013-06-27 18:42:00,80.2,67.8,29.80,North,0,0.0,0.0,66,0.00,CLR,FEW,0.08,WeatherDisplay:10.37,2013-06-27 22:42:00,
2013-06-27 18:47:00,80.4,68.9,29.80,North,0,0.0,0.0,68,0.00,CLR,FEW,0.08,WeatherDisplay:10.37,2013-06-27 22:47:00,
2013-06-27 18:52:00,80.4,70.6,29.80,North,0,0.0,0.0,72,0.00,CLR,FEW,0.08,WeatherDisplay:10.37,2013-06-27 22:52:00,
2013-06-27 18:57:00,80.4,71.4,29.80,North,0,0.0,0.0,74,0.00,CLR,FEW,0.08,WeatherDisplay:10.37,2013-06-27 22:57:00,
2013-06-27 19:02:00,80.6,71.9,29.80,North,0,0.0,0.0,75,0.00,CLR,FEW,0.08,WeatherDisplay:10.37,2013-06-27 23:02:00,
2013-06-27 19:07:00,80.6,72.3,29.80,North,0,0.0,0.0,76,0.00,CLR,FEW,0.08,WeatherDisplay:10.37,2013-06-27 23:07:00,
2013-06-27 19:12:00,80.6,72.7,29.80,North,0,0.0,0.0,77,0.00,CLR,FEW,0.08,WeatherDisplay:10.37,2013-06-27 23:12:00,
2013-06-27 19:17:00,80.8,73.3,29.80,North,0,0.0,0.0,78,0.00,CLR,FEW,0.08,WeatherDisplay:10.37,2013-06-27 23:17:00,
2013-06-27 19:22:00,80.8,73.3,29.80,North,0,0.0,0.0,78,0.00,CLR,FEW,0.08,WeatherDisplay:10.37,2013-06-27 23:22:00,
2013-06-27 19:27:00,80.8,73.3,29.80,North,0,0.0,0.0,78,0.00,CLR,FEW,0.08,WeatherDisplay:10.37,2013-06-27 23:27:00,
2013-06-27 19:33:00,81.0,73.1,29.80,North,0,0.0,0.0,77,0.00,CLR,FEW,0.08,WeatherDisplay:10.37,2013-06-27 23:33:00,
2013-06-27 19:38:00,81.0,72.3,29.80,North,0,0.0,0.0,75,0.00,CLR,FEW,0.08,WeatherDisplay:10.37,2013-06-27 23:38:00,
2013-06-27 19:44:00,81.1,72.5,29.80,North,0,0.0,0.0,75,0.00,CLR,FEW,0.08,WeatherDisplay:10.37,2013-06-27 23:44:00,
2013-06-27 19:49:00,81.0,71.5,29.80,North,0,0.0,0.0,73,0.00,CLR,FEW,0.08,WeatherDisplay:10.37,2013-06-27 23:49:00,
2013-06-27 19:54:00,81.0,71.1,29.80,North,0,0.0,0.0,72,0.00,CLR,FEW,0.08,WeatherDisplay:10.37,2013-06-27 23:54:00,
2013-06-27 19:59:00,81.0,71.1,29.80,North,0,0.0,0.0,72,0.00,CLR,FEW,0.08,WeatherDisplay:10.37,2013-06-27 23:59:00,
2013-06-27 20:04:00,81.0,71.1,29.80,North,0,0.0,0.0,72,0.00,CLR,FEW,0.08,WeatherDisplay:10.37,2013-06-28 00:04:00,
2013-06-27 20:09:00,81.0,70.7,29.80,North,0,0.0,0.0,71,0.00,CLR,FEW,0.08,WeatherDisplay:10.37,2013-06-28 00:09:00,
2013-06-27 20:14:00,81.0,70.7,29.80,North,0,0.0,0.0,71,0.00,CLR,FEW,0.08,WeatherDisplay:10.37,2013-06-28 00:14:00,
2013-06-27 20:19:00,81.0,70.7,29.83,North,0,0.0,0.0,71,0.00,CLR,FEW,0.08,WeatherDisplay:10.37,2013-06-28 00:19:00,
2013-06-27 20:24:00,81.0,70.3,29.83,North,0,0.0,0.0,70,0.00,CLR,FEW,0.08,WeatherDisplay:10.37,2013-06-28 00:24:00,
2013-06-27 20:29:00,81.0,69.8,29.83,North,0,0.0,0.0,69,0.00,CLR,FEW,0.08,WeatherDisplay:10.37,2013-06-28 00:29:00,
2013-06-27 20:34:00,81.0,69.8,29.83,North,0,0.0,0.0,69,0.00,CLR,FEW,0.08,WeatherDisplay:10.37,2013-06-28 00:34:00,
2013-06-27 20:39:00,81.0,69.8,29.83,North,0,0.0,0.0,69,0.00,CLR,FEW,0.08,WeatherDisplay:10.37,2013-06-28 00:39:00,
2013-06-27 20:45:00,81.1,70.0,29.83,North,0,0.0,0.0,69,0.00,CLR,FEW,0.08,WeatherDisplay:10.37,2013-06-28 00:45:00,
2013-06-27 20:50:00,81.0,69.8,29.80,North,0,0.0,0.0,69,0.00,CLR,FEW,0.08,WeatherDisplay:10.37,2013-06-28 00:50:00,
2013-06-27 20:55:00,81.0,69.8,29.80,North,0,0.0,0.0,69,0.00,CLR,FEW,0.08,WeatherDisplay:10.37,2013-06-28 00:55:00,
2013-06-27 21:00:00,81.0,69.4,29.80,North,0,0.0,0.0,68,0.00,CLR,FEW,0.08,WeatherDisplay:10.37,2013-06-28 01:00:00,
2013-06-27 21:05:00,81.0,69.4,29.80,North,0,0.0,0.0,68,0.00,CLR,FEW,0.08,WeatherDisplay:10.37,2013-06-28 01:05:00,
2013-06-27 21:11:00,81.0,69.0,29.80,North,0,0.0,0.0,67,0.00,CLR,FEW,0.08,WeatherDisplay:10.37,2013-06-28 01:11:00,
2013-06-27 21:16:00,81.0,69.0,29.80,North,0,0.0,0.0,67,0.00,CLR,FEW,0.08,WeatherDisplay:10.37,2013-06-28 01:16:00,
2013-06-27 21:21:00,80.8,68.8,29.80,North,0,0.0,0.0,67,0.00,CLR,FEW,0.08,WeatherDisplay:10.37,2013-06-28 01:21:00,
2013-06-27 21:26:00,80.8,68.8,29.80,North,0,0.0,0.0,67,0.00,CLR,FEW,0.08,WeatherDisplay:10.37,2013-06-28 01:26:00,
2013-06-27 21:31:00,80.8,69.2,29.80,North,0,0.0,0.0,68,0.00,CLR,FEW,0.08,WeatherDisplay:10.37,2013-06-28 01:31:00,
2013-06-27 21:36:00,80.6,69.1,29.80,North,0,0.0,0.0,68,0.00,CLR,FEW,0.08,WeatherDisplay:10.37,2013-06-28 01:36:00,
2013-06-27 21:41:00,80.6,69.5,29.80,North,0,0.0,0.0,69,0.00,CLR,FEW,0.08,WeatherDisplay:10.37,2013-06-28 01:41:00,
2013-06-27 21:46:00,80.6,70.3,29.80,North,0,0.0,0.0,71,0.00,CLR,FEW,0.08,WeatherDisplay:10.37,2013-06-28 01:46:00,
2013-06-27 21:51:00,80.6,70.3,29.80,North,0,0.0,0.0,71,0.00,CLR,FEW,0.08,WeatherDisplay:10.37,2013-06-28 01:51:00,
2013-06-27 21:57:00,80.6,71.1,29.80,North,0,0.0,0.0,73,0.00,CLR,FEW,0.08,WeatherDisplay:10.37,2013-06-28 01:57:00,
2013-06-27 22:02:00,80.6,71.5,29.80,North,0,0.0,0.0,74,0.00,CLR,FEW,0.08,WeatherDisplay:10.37,2013-06-28 02:02:00,
2013-06-27 22:07:00,80.6,71.5,29.80,North,0,0.0,0.0,74,0.00,CLR,FEW,0.08,WeatherDisplay:10.37,2013-06-28 02:07:00,
2013-06-27 22:12:00,80.6,71.1,29.80,North,0,0.0,0.0,73,0.00,CLR,FEW,0.08,WeatherDisplay:10.37,2013-06-28 02:12:00,
2013-06-27 22:17:00,80.4,70.6,29.83,North,0,0.0,0.0,72,0.00,CLR,FEW,0.08,WeatherDisplay:10.37,2013-06-28 02:17:00,
2013-06-27 22:22:00,80.2,70.0,29.83,North,0,0.0,0.0,71,0.00,CLR,FEW,0.08,WeatherDisplay:10.37,2013-06-28 02:22:00,
2013-06-27 22:27:00,80.4,70.2,29.83,North,0,0.0,0.0,71,0.00,CLR,FEW,0.08,WeatherDisplay:10.37,2013-06-28 02:27:00,
2013-06-27 22:32:00,80.4,70.2,29.83,North,0,0.0,0.0,71,0.00,CLR,FEW,0.08,WeatherDisplay:10.37,2013-06-28 02:32:00,
2013-06-27 22:37:00,80.4,70.6,29.83,North,0,0.0,0.0,72,0.00,CLR,FEW,0.08,WeatherDisplay:10.37,2013-06-28 02:37:00,
2013-06-27 22:42:00,80.4,71.4,29.83,North,0,0.0,0.0,74,0.00,CLR,FEW,0.08,WeatherDisplay:10.37,2013-06-28 02:42:00,
2013-06-27 22:47:00,80.4,71.8,29.80,North,0,0.0,0.0,75,0.00,CLR,FEW,0.08,WeatherDisplay:10.37,2013-06-28 02:47:00,
2013-06-27 22:52:00,80.4,72.2,29.80,North,0,0.0,0.0,76,0.00,CLR,FEW,0.08,WeatherDisplay:10.37,2013-06-28 02:52:00,
2013-06-27 22:59:00,80.4,72.2,29.80,North,0,0.0,0.0,76,0.00,CLR,FEW,0.08,WeatherDisplay:10.37,2013-06-28 02:59:00,
2013-06-27 23:04:00,80.4,72.5,29.83,North,0,0.0,0.0,77,0.00,CLR,FEW,0.08,WeatherDisplay:10.37,2013-06-28 03:04:00,
2013-06-27 23:09:00,80.4,72.5,29.83,North,0,0.0,0.0,77,0.00,CLR,FEW,0.08,WeatherDisplay:10.37,2013-06-28 03:09:00,
2013-06-27 23:14:00,80.4,72.9,29.83,North,0,0.0,0.0,78,0.00,CLR,FEW,0.08,WeatherDisplay:10.37,2013-06-28 03:14:00,
2013-06-27 23:20:00,80.4,72.5,29.83,North,0,0.0,0.0,77,0.00,CLR,FEW,0.08,WeatherDisplay:10.37,2013-06-28 03:20:00,
2013-06-27 23:25:00,80.4,72.5,29.83,North,0,0.0,0.0,77,0.00,CLR,FEW,0.08,WeatherDisplay:10.37,2013-06-28 03:25:00,
2013-06-27 23:31:00,80.4,72.2,29.83,North,0,0.0,0.0,76,0.00,CLR,FEW,0.08,WeatherDisplay:10.37,2013-06-28 03:31:00,
2013-06-27 23:36:00,80.1,68.1,29.83,North,0,0.0,0.0,67,0.00,CLR,FEW,0.08,WeatherDisplay:10.37,2013-06-28 03:36:00,
2013-06-27 23:42:00,80.4,65.7,29.83,North,0,0.0,0.0,61,0.00,CLR,FEW,0.08,WeatherDisplay:10.37,2013-06-28 03:42:00,
2013-06-27 23:47:00,80.6,64.9,29.83,North,0,0.0,0.0,59,0.00,CLR,FEW,0.08,WeatherDisplay:10.37,2013-06-28 03:47:00,
2013-06-27 23:52:00,80.8,65.1,29.83,North,0,0.0,0.0,59,0.00,CLR,FEW,0.08,WeatherDisplay:10.37,2013-06-28 03:52:00,
2013-06-27 23:59:00,81.0,65.3,29.83,North,0,0.0,0.0,59,0.00,CLR,FEW,0.08,WeatherDisplay:10.37,2013-06-28 03:59:00,